This is the latest recevied weather packets stored in our database for station/object KG5MMT-15. If no packets are shown the sender has not sent any weather packets the latest 10 day(s).
| Time | Temp. | Humidity | Pressure | Rain* | Wind** | Luminosity | Snow |
|---|---|---|---|---|---|---|---|
| 1788175072 | 17.22° C | 63% | 0 hPa | 0 mm | - | - | - |
| 1788174772 | 17.22° C | 63% | 0 hPa | 0 mm | - | - | - |
| 1788174473 | 17.22° C | 63% | 0 hPa | 0 mm | - | - | - |
| 1788174173 | 17.22° C | 62% | 0 hPa | 0 mm | - | - | - |
| 1788173872 | 17.78° C | 64% | 0 hPa | 0 mm | - | - | - |
| 1788173572 | 17.78° C | 62% | 0 hPa | 0 mm | - | - | - |
| 1788173278 | 17.78° C | 62% | 0 hPa | 0 mm | - | - | - |
| 1788172973 | 17.22° C | 64% | 0 hPa | 0 mm | - | - | - |
| 1788172673 | 17.22° C | 66% | 0 hPa | 0 mm | - | - | - |
| 1788172373 | 17.22° C | 67% | 0 hPa | 0 mm | - | - | - |
| 1788172072 | 17.78° C | 64% | 0 hPa | 0 mm | - | - | - |
| 1788171773 | 17.78° C | 63% | 0 hPa | 0 mm | - | - | - |
| 1788171473 | 17.78° C | 62% | 0 hPa | 0 mm | - | - | - |
| 1788171172 | 18.33° C | 61% | 0 hPa | 0 mm | - | - | - |
| 1788170873 | 18.89° C | 59% | 0 hPa | 0 mm | - | - | - |
| 1788170573 | 18.89° C | 57% | 0 hPa | 0 mm | - | - | - |
| 1788170273 | 19.44° C | 57% | 0 hPa | 0 mm | - | - | - |
| 1788169973 | 20° C | 53% | 0 hPa | 0 mm | - | - | - |
| 1788169673 | 20° C | 52% | 0 hPa | 0 mm | - | - | - |
| 1788169373 | 20° C | 50% | 0 hPa | 0 mm | - | - | - |
| 1788168773 | 19.44° C | 52% | 0 hPa | 0 mm | - | - | - |
| 1788168473 | 19.44° C | 51% | 0 hPa | 0 mm | - | - | - |
| 1788168173 | 19.44° C | 52% | 0 hPa | 0 mm | - | - | - |
| 1788167873 | 18.89° C | 53% | 0 hPa | 0 mm | - | - | - |
| 1788167573 | 18.89° C | 57% | 0 hPa | 0 mm | - | - | - |
* Rain latest hour (hover to see other rain measurements)
** Current wind speed in m/s (hover to see current wind gust speed)